[[{"header":{"parameterUnit":"m.s-1","parameterCategory":1,"la1":30.2991,"la2":30.254,"lo1":-89.0895,"lo2":-89.0444,"dy":0.0017,"dx":0.0017,"nx":28,"ny":28,"refTime":"2024-03-15T09:00:00:Z","depth":0,"parameterNumber":2,"parameterNumberName":"U-component_of_WINDS"},"data":[0,0,0,0,0,0,0,0,0,0,0,0,0,0,0,0,0,0,0,0,0,0,0,0,0,0,0,0,0,0,0,0,0,0,0,0,0,0,0,0,0,0,0,0,0,0,0,0,0,0,0,0,0,0,0,0,0,0,-1.6266,-1.6265,0,-1.6201,-1.62,-1.6199,-1.614,-1.6139,-1.6139,-1.6138,-1.6069,-1.6068,-1.6067,0,0,0,0,0,0,0,0,0,0,0,0,0,-1.6339,-1.6338,-1.6266,-1.6265,-1.6265,-1.6201,-1.62,-1.6199,-1.614,-1.6139,-1.6139,-1.6138,-1.6069,-1.6068,-1.6066,0,0,0,0,0,0,0,0,0,0,0,0,0,-1.6294,-1.6337,-1.6266,-1.6228,-1.6223,-1.6201,-1.62,-1.6199,-1.614,-1.6139,-1.6138,-1.6137,-1.607,-1.6068,-1.6066,-1.6076,0,0,-1.6061,-1.606,0,0,0,0,0,0,0,0,-1.6296,-1.6291,-1.6234,-1.623,-1.6226,-1.6178,-1.62,-1.6158,-1.6141,-1.6172,-1.6138,-1.6137,-1.6106,-1.6101,-1.6091,-1.6073,-1.607,-1.6061,-1.606,-1.6059,-1.6058,0,0,0,0,0,0,0,-1.63,-1.6294,-1.624,-1.6233,-1.6228,-1.6213,-1.6206,-1.6192,-1.6145,-1.6169,-1.6165,-1.6158,-1.6103,-1.6093,-1.6089,-1.6069,-1.6061,-1.6059,-1.6058,-1.6057,-1.6057,-1.6058,0,0,0,0,0,0,-1.6309,-1.6297,-1.6242,-1.6238,-1.6259,-1.6213,-1.6204,-1.6194,-1.6145,-1.6137,-1.6159,-1.6155,-1.6096,-1.6091,-1.6086,-1.6095,-1.6059,-1.6057,-1.6056,-1.6056,-1.6057,-1.6059,0,0,0,0,0,0,-1.6311,-1.6305,-1.6245,-1.6266,-1.6258,-1.6213,-1.6202,-1.6193,-1.6183,-1.6138,-1.6129,-1.6157,-1.6095,-1.6089,-1.608,-1.6092,-1.6056,-1.6055,-1.6055,-1.6057,-1.6058,-1.6112,0,0,0,0,0,0,-1.6313,-1.6306,-1.6309,-1.6267,-1.6257,-1.624,-1.6202,-1.6193,-1.618,-1.6175,-1.6133,-1.6126,-1.6094,-1.6083,-1.6078,-1.6089,-1.6053,-1.6054,-1.6056,-1.6057,-1.6109,-1.6116,-1.6121,0,0,0,0,0,-1.6316,-1.6326,-1.6309,-1.6303,-1.626,-1.6241,-1.6235,-1.6199,-1.6181,-1.6184,-1.6156,-1.6127,-1.6092,-1.6082,-1.6076,-1.6087,-1.6053,-1.6055,-1.6057,-1.6107,-1.6114,-1.6121,0,0,0,0,0,0,-1.637,-1.632,-1.6301,-1.6298,-1.6274,-1.6231,-1.6233,-1.6208,-1.6188,-1.6184,-1.614,-1.6131,-1.6127,-1.6106,-1.6096,-1.6094,-1.6068,-1.607,-1.6108,-1.6115,-1.6121,-1.6125,-1.6052,0,0,0,0,0,-1.6382,-1.637,-1.6327,-1.6329,-1.6318,-1.6278,-1.6268,-1.6243,-1.6216,-1.6205,-1.6176,-1.6151,-1.6134,-1.6123,-1.6105,-1.6107,-1.6097,-1.6111,-1.6117,-1.6122,-1.6123,-1.6123,-1.6129,-1.6066,-1.6066,-1.6066,0,0,-1.6405,-1.6377,-1.6372,-1.6339,-1.6318,-1.6307,-1.627,-1.626,-1.6251,-1.6203,-1.6193,-1.6171,-1.614,-1.6136,-1.6133,-1.6119,-1.6139,-1.6125,-1.613,-1.6128,-1.6126,-1.6132,-1.6137,-1.6068,-1.6068,-1.6067,0,0,-1.6442,-1.642,-1.6419,-1.6399,-1.6368,-1.6341,-1.6342,-1.6302,-1.6286,-1.6275,-1.624,-1.6229,-1.6201,-1.618,-1.6166,-1.6199,-1.6171,-1.6194,-1.6224,-1.6224,-1.6229,-1.6233,-1.6245,-1.6249,-1.6196,-1.6196,-1.6196,0,-1.6475,-1.6458,-1.6422,-1.6414,-1.6401,-1.6359,-1.6358,-1.634,-1.6304,-1.6296,-1.6281,-1.6246,-1.6221,-1.6213,-1.6221,-1.6211,-1.6209,-1.6198,-1.6232,-1.6235,-1.6239,-1.6249,-1.6253,-1.6199,-1.6199,-1.6198,-1.6198,0,-1.65,-1.6489,-1.6492,-1.646,-1.6447,-1.6443,-1.6405,-1.6397,-1.6374,-1.6349,-1.6339,-1.6309,-1.6285,-1.6281,-1.6258,-1.627,-1.6262,-1.624,-1.6212,-1.6248,-1.6257,-1.6261,-1.6203,-1.6202,-1.6201,-1.62,0,0,-1.6567,-1.6517,-1.6518,-1.6503,-1.6467,-1.6457,-1.6452,-1.6429,-1.6422,-1.64,-1.6393,-1.6372,-1.6352,-1.6336,-1.631,-1.6311,-1.6338,-1.6289,-1.6287,-1.6298,-1.6349,-1.6365,-1.637,-1.6321,-1.6322,-1.6322,-1.6352,0,-1.6598,-1.6585,-1.6553,-1.655,-1.654,-1.6501,-1.6496,-1.6473,-1.6451,-1.6438,-1.6413,-1.6398,-1.6373,-1.6364,-1.6363,-1.6335,-1.6348,-1.6333,-1.6314,-1.6313,-1.6321,-1.6374,-1.6391,-1.642,-1.6355,-1.6355,-1.6356,0,-1.6631,-1.6612,-1.6608,-1.6574,-1.6568,-1.6564,-1.6541,-1.653,-1.6503,-1.6487,-1.6471,-1.6443,-1.6435,-1.6411,-1.6399,-1.639,-1.638,-1.6366,-1.6366,-1.6362,-1.6336,-1.637,-1.6428,-1.6432,-1.6361,-1.636,-1.636,0,-1.6679,-1.6653,-1.6648,-1.6636,-1.6596,-1.6594,-1.6577,-1.655,-1.6538,-1.6519,-1.6511,-1.649,-1.6479,-1.6464,-1.6431,-1.6417,-1.6423,-1.6396,-1.6408,-1.6409,-1.6409,-1.6409,-1.6465,-1.6406,-1.6406,-1.6406,-1.6406,0,-1.6716,-1.6715,-1.6669,-1.6666,-1.6664,-1.6628,-1.6627,-1.6606,-1.6583,-1.6574,-1.654,-1.6533,-1.6491,-1.6479,-1.6454,-1.6448,-1.6443,-1.6429,-1.6422,-1.6431,-1.6433,-1.6423,-1.642,-1.6407,-1.6407,-1.6406,-1.6406,0,-1.6769,-1.6738,-1.673,-1.6693,-1.6684,-1.6684,-1.6652,-1.6647,-1.6624,-1.6614,-1.6609,-1.6572,-1.6557,-1.6523,-1.6498,-1.6481,-1.6481,-1.6469,-1.649,-1.6485,-1.6499,-1.6498,-1.655,-1.6554,-1.6493,-1.6494,-1.6494,0,-1.6793,-1.6792,-1.6756,-1.6748,-1.6733,-1.6721,-1.671,-1.6675,-1.6665,-1.6636,-1.6635,-1.6617,-1.66,-1.6577,-1.6548,-1.6529,-1.6515,-1.6535,-1.6512,-1.6522,-1.6515,-1.6515,-1.6514,-1.654,-1.654,-1.6541,-1.6542,0,-1.684,-1.6826,-1.6811,-1.6792,-1.678,-1.6763,-1.6744,-1.674,-1.6701,-1.6691,-1.6676,-1.6663,-1.6639,-1.6621,-1.6598,-1.658,-1.6554,-1.655,-1.6551,-1.656,-1.6572,-1.6565,-1.6503,-1.6548,-1.6547,-1.6547,-1.6547,-1.6546,-1.6879,-1.6876,-1.6851,-1.6836,-1.6819,-1.6802,-1.6796,-1.6773,-1.676,-1.6737,-1.6718,-1.6704,-1.6679,-1.6645,-1.6629,-1.6618,-1.6605,-1.6607,-1.6608,-1.6609,-1.6612,-1.6575,-1.6613,-1.6613,-1.6613,-1.6613,-1.6613,0,-1.6924,-1.6906,-1.6893,-1.6868,-1.6857,-1.6836,-1.6814,-1.6806,-1.6795,-1.6774,-1.6759,-1.6741,-1.6725,-1.6695,-1.6676,-1.6672,-1.666,-1.6668,-1.6667,-1.6664,-1.6625,-1.6625,-1.6679,-1.6679,-1.6679,-1.6678,-1.6678,-1.6678,-1.6945,-1.694,-1.6922,-1.6908,-1.689,-1.6877,-1.6866,-1.6851,-1.6834,-1.6817,-1.6803,-1.6784,-1.676,-1.6739,-1.6723,-1.6714,-1.6708,-1.672,-1.6708,-1.6672,-1.6666,-1.666,-1.666,-1.672,-1.672,-1.6747,-1.6747,-1.6748]},{"header":{"parameterUnit":"m.s-1","parameterCategory":1,"la1":30.2991,"la2":30.254,"lo1":-89.0895,"lo2":-89.0444,"dy":0.0017,"dx":0.0017,"nx":28,"ny":28,"refTime":"2024-03-15T09:00:00:Z","depth":0,"parameterNumber":3,"parameterNumberName":"V-component_of_WINDS"},"data":[0,0,0,0,0,0,0,0,0,0,0,0,0,0,0,0,0,0,0,0,0,0,0,0,0,0,0,0,0,0,0,0,0,0,0,0,0,0,0,0,0,0,0,0,0,0,0,0,0,0,0,0,0,0,0,0,0,0,1.9257,1.9257,0,1.927,1.927,1.927,1.9285,1.9286,1.9286,1.9286,1.9297,1.9297,1.9297,0,0,0,0,0,0,0,0,0,0,0,0,0,1.9246,1.9246,1.9257,1.9257,1.9258,1.927,1.927,1.927,1.9285,1.9286,1.9286,1.9286,1.9297,1.9297,1.9297,0,0,0,0,0,0,0,0,0,0,0,0,0,1.9254,1.9246,1.9257,1.9267,1.9268,1.927,1.927,1.927,1.9285,1.9286,1.9286,1.9286,1.9297,1.9297,1.9297,1.9291,0,0,1.9298,1.9298,0,0,0,0,0,0,0,0,1.9253,1.9254,1.9265,1.9266,1.9267,1.9276,1.927,1.9277,1.9285,1.9278,1.9286,1.9286,1.929,1.9291,1.9292,1.9291,1.9292,1.9298,1.9298,1.9298,1.9298,0,0,0,0,0,0,0,1.9253,1.9254,1.9262,1.9265,1.9266,1.927,1.9272,1.9272,1.9282,1.9279,1.928,1.9282,1.929,1.9292,1.9292,1.9292,1.9298,1.9298,1.9298,1.9298,1.9289,1.9289,0,0,0,0,0,0,1.9251,1.9253,1.9262,1.9263,1.9261,1.927,1.9272,1.9273,1.9282,1.9284,1.9281,1.9282,1.9292,1.9292,1.9293,1.9288,1.9298,1.9298,1.9298,1.929,1.9289,1.9289,0,0,0,0,0,0,1.925,1.9251,1.9261,1.9258,1.926,1.927,1.9271,1.9273,1.9275,1.9284,1.9285,1.9281,1.9292,1.9293,1.9292,1.9288,1.9298,1.9298,1.929,1.9289,1.9289,1.9276,0,0,0,0,0,0,1.925,1.9251,1.9249,1.9258,1.926,1.926,1.9271,1.9273,1.9275,1.9276,1.9284,1.9285,1.9292,1.9292,1.9292,1.9288,1.9298,1.929,1.929,1.9289,1.9276,1.9275,1.9273,0,0,0,0,0,1.925,1.9244,1.9249,1.9249,1.9257,1.926,1.9261,1.9269,1.9275,1.9272,1.9279,1.9285,1.9289,1.9292,1.9292,1.9288,1.9291,1.929,1.9289,1.9277,1.9275,1.9273,0,0,0,0,0,0,1.9232,1.9245,1.925,1.9247,1.9253,1.9262,1.926,1.9267,1.927,1.9271,1.9281,1.9282,1.9281,1.9284,1.9287,1.9284,1.9291,1.929,1.9281,1.9279,1.9278,1.9277,1.9298,0,0,0,0,0,1.9228,1.923,1.9241,1.9237,1.9239,1.9249,1.925,1.9257,1.9262,1.9264,1.927,1.9275,1.9278,1.9279,1.9281,1.9277,1.928,1.9275,1.9274,1.9272,1.9272,1.9272,1.927,1.9287,1.9287,1.9287,0,0,1.9219,1.9227,1.9227,1.9234,1.9238,1.924,1.9251,1.9251,1.9253,1.9264,1.9264,1.9269,1.9275,1.9274,1.9273,1.9277,1.9268,1.9272,1.927,1.927,1.9271,1.9269,1.9268,1.9286,1.9286,1.9286,0,0,1.9205,1.921,1.9208,1.9213,1.9221,1.9228,1.9228,1.9237,1.9241,1.9242,1.9251,1.9253,1.9256,1.9261,1.9263,1.9253,1.926,1.9254,1.9245,1.9245,1.9244,1.9243,1.924,1.9239,1.9253,1.9253,1.9253,0,1.9193,1.9196,1.9206,1.9207,1.921,1.9223,1.9221,1.9226,1.9233,1.9235,1.924,1.9246,1.925,1.9251,1.9249,1.925,1.925,1.9253,1.9243,1.9242,1.9242,1.9239,1.9238,1.9252,1.9252,1.9252,1.9253,0,1.9181,1.9183,1.9181,1.919,1.9193,1.9192,1.9203,1.9205,1.9212,1.9219,1.922,1.9227,1.9232,1.9232,1.9238,1.9234,1.9236,1.9242,1.9249,1.9239,1.9237,1.9236,1.9251,1.9252,1.9252,1.9252,0,0,1.9154,1.9171,1.917,1.9175,1.9185,1.9187,1.9188,1.9194,1.9196,1.9201,1.9203,1.9207,1.9213,1.9216,1.9223,1.9223,1.9216,1.9229,1.9229,1.9227,1.9213,1.9209,1.9208,1.922,1.922,1.922,1.9213,0,1.9142,1.9145,1.9155,1.9155,1.9158,1.9171,1.9172,1.9178,1.9185,1.9189,1.9196,1.9199,1.9206,1.9208,1.9209,1.9216,1.9213,1.9217,1.9222,1.9222,1.922,1.9206,1.9202,1.9194,1.9212,1.9212,1.9212,0,1.9127,1.9134,1.9134,1.9146,1.9148,1.9149,1.9156,1.9159,1.9168,1.9173,1.9177,1.9186,1.9188,1.9195,1.9199,1.9201,1.9204,1.9208,1.9208,1.9209,1.9216,1.9207,1.9192,1.9191,1.921,1.921,1.9211,0,1.9109,1.9117,1.9119,1.9123,1.9137,1.9138,1.9144,1.9153,1.9156,1.9163,1.9165,1.9171,1.9175,1.918,1.919,1.9194,1.9193,1.92,1.9197,1.9197,1.9196,1.9196,1.9182,1.9198,1.9198,1.9198,1.9198,0,1.9094,1.9094,1.9111,1.9112,1.9113,1.9126,1.9126,1.9133,1.9142,1.9145,1.9156,1.9158,1.9171,1.9176,1.9183,1.9186,1.9187,1.9192,1.9194,1.9191,1.919,1.9193,1.9194,1.9197,1.9197,1.9197,1.9197,0,1.9073,1.9085,1.9088,1.9102,1.9106,1.9106,1.9118,1.912,1.9128,1.9132,1.9134,1.9146,1.9152,1.9163,1.9171,1.9177,1.9178,1.9181,1.9175,1.9176,1.9173,1.9174,1.916,1.9159,1.9175,1.9175,1.9175,0,1.9063,1.9063,1.9078,1.9082,1.9088,1.9093,1.9097,1.911,1.9114,1.9125,1.9126,1.9133,1.9139,1.9148,1.9158,1.9165,1.9169,1.9163,1.9169,1.9167,1.9169,1.9169,1.917,1.9162,1.9162,1.9161,1.9161,0,1.9044,1.905,1.9056,1.9065,1.9071,1.9078,1.9086,1.9088,1.9102,1.9107,1.9113,1.9118,1.9128,1.9135,1.9144,1.915,1.9158,1.9159,1.9159,1.9156,1.9153,1.9156,1.9172,1.9159,1.916,1.916,1.916,1.916,1.9029,1.9031,1.9042,1.9049,1.9057,1.9064,1.9067,1.9077,1.9083,1.9093,1.91,1.9106,1.9117,1.913,1.9135,1.9141,1.9145,1.9144,1.9144,1.9144,1.9143,1.9152,1.9142,1.9142,1.9142,1.9143,1.9143,0,1.9011,1.902,1.9026,1.9038,1.9044,1.9052,1.9062,1.9066,1.9072,1.9081,1.9088,1.9096,1.9104,1.9115,1.9124,1.9126,1.913,1.9128,1.9128,1.9129,1.9139,1.9138,1.9124,1.9124,1.9124,1.9124,1.9124,1.9124,1.9003,1.9007,1.9015,1.9024,1.9032,1.9039,1.9044,1.9052,1.9059,1.9069,1.9075,1.9083,1.9094,1.9103,1.9111,1.9114,1.9117,1.9114,1.9118,1.9127,1.9128,1.913,1.913,1.9114,1.9114,1.9108,1.9108,1.9108]}]]